Location: Caltech
(34.1382°N, 118.1253°W)
Time: 20:41:00
(UTC-07:00)

SL-08 RB Rocket - Visible Passes

Search period start: 18 August 2017 00:00
Search period end: 28 August 2017 00:00
Orbit: 647 x 686 km, 98.0° (Epoch: 17 August)

Date Brightness Start Highest point End Pass type
(mag) Time Alt. Az. Time Alt. Az. Time Alt. Az.
18 Aug 5.1 21:29:39 25° NE 21:29:39 25° NE 21:32:40 10° NNE visible
18 Aug 6.2 23:07:47 18° WNW 23:07:47 18° WNW 23:09:27 10° NW visible
19 Aug 4.7 22:01:44 40° NNE 22:01:44 40° NNE 22:04:48 10° N visible
20 Aug 5.8 20:55:41 12° ENE 20:55:41 12° ENE 20:56:58 10° NE visible
20 Aug 5.3 22:33:49 32° NW 22:33:49 32° NW 22:36:23 10° NNW visible
21 Aug 5.2 21:27:46 23° NE 21:27:46 23° NE 21:30:24 10° NNE visible
21 Aug 6.3 23:05:54 17° NW 23:05:54 17° NW 23:07:20 10° NW visible
22 Aug 4.9 21:59:51 34° NNE 21:59:51 34° NNE 22:02:34 10° N visible
23 Aug 5.9 20:53:48 11° ENE 20:53:48 11° ENE 20:54:27 10° NE visible
23 Aug 5.5 22:31:56 28° NNW 22:31:56 28° NNW 22:34:12 10° NNW visible
24 Aug 5.4 21:25:53 21° NE 21:25:53 21° NE 21:28:08 10° NNE visible
24 Aug 6.4 23:04:02 16° NW 23:04:02 16° NW 23:05:12 10° NW visible
25 Aug 5.2 21:57:59 29° NNE 21:57:59 29° NNE 22:00:22 10° N visible
26 Aug 5.7 22:30:05 25° NNW 22:30:05 25° NNW 22:32:00 10° NNW visible
27 Aug 5.5 21:24:01 18° NE 21:24:01 18° NE 21:25:51 10° NNE visible
27 Aug 6.5 23:02:10 15° NW 23:02:10 15° NW 23:03:03 10° NW visible
